Theta_e
292 292 292 291 291 292 292 292 292 292 292 292 291 290 290 290 290 290 290 288 288 290 289 289 289 290 290 290 290 289 289 289 289 289 289 290 290 290 290 291 292 293 294 297
290 292 292 292 292 292 292 293 292 292 292 291 290 290 289 289 289 290 289 289 288 287 288 288 289 289 288 288 288 288 287 287 287 288 288 288 288 288 289 289 290 290 293 296
290 292 292 292 291 293 293 293 292 292 290 290 288 288 289 289 291 290 289 288 287 288 289 288 287 287 287 287 286 286 286 286 286 286 287 287 287 288 288 288 289 289 290 292
290 290 292 292 292 293 293 291 291 291 289 289 289 286 288 290 291 291 290 290 290 289 289 287 287 286 286 286 285 284 284 284 284 285 286 286 287 287 288 288 289 289 290 293
289 291 292 291 292 292 293 291 291 289 289 282 286 284 287 288 291 291 290 289 289 288 287 286 285 285 285 284 283 282 282 282 283 283 284 285 285 286 287 287 288 288 289 291
291 290 288 290 287 288 288 286 287 280 274 277 284 283 286 294 293 292 290 289 289 287 286 285 285 284 283 282 281 281 281 281 281 282 282 283 284 285 285 286 286 287 289 290
287 290 289 287 284 282 280 280 286 279 277 279 286 286 286 292 290 290 287 287 287 286 285 283 282 282 281 281 280 280 280 279 279 280 280 281 282 282 283 284 285 286 287 288
279 281 286 286 286 282 284 283 286 288 284 286 287 279 286 290 290 288 287 286 287 285 284 282 281 281 281 280 280 279 278 278 278 279 279 279 280 280 281 282 283 284 285 287
279 281 286 286 286 283 287 279 285 288 270 278 282 286 287 290 286 286 286 287 285 283 282 281 280 280 279 279 278 277 277 277 277 278 278 278 278 279 279 280 281 283 284 285
278 282 285 286 284 284 285 285 282 280 285 279 281 283 284 284 282 285 285 286 285 283 282 280 279 278 278 277 276 276 276 276 276 276 277 277 277 277 278 278 280 281 283 284
272 276 281 281 275 277 280 280 284 282 284 286 279 279 276 276 275 281 283 287 284 281 279 278 277 277 276 275 275 275 276 276 276 276 276 276 276 276 277 277 278 279 281 283
281 281 276 279 280 278 279 280 285 284 280 276 276 283 272 273 277 282 286 287 284 281 275 274 275 275 275 275 275 275 275 275 275 275 275 275 275 276 276 277 277 279 280 282
280 281 281 278 276 275 274 275 279 276 277 277 278 279 276 283 284 286 287 284 282 279 275 275 276 275 275 275 275 275 275 275 275 275 275 275 275 276 276 276 277 278 279 281
283 273 278 281 279 270 274 275 274 274 275 275 279 282 283 283 284 285 285 284 278 275 273 276 275 275 275 275 275 274 274 274 274 274 274 275 276 276 276 277 277 277 279 280
277 277 270 275 279 268 275 278 278 274 277 283 280 281 283 283 284 283 283 276 275 275 275 276 275 274 275 275 274 274 274 274 273 274 275 275 275 276 276 276 277 278 279 281
274 279 271 278 268 266 271 277 276 280 281 281 283 282 280 277 281 283 282 276 274 274 275 274 274 274 275 274 274 274 274 273 274 274 275 276 278 279 279 278 277 278 279 280
280 278 275 275 272 271 279 278 274 274 274 280 283 282 278 282 282 283 280 278 274 272 273 273 274 274 274 274 273 273 273 274 274 274 276 278 281 284 284 280 279 279 280 281
273 278 277 276 274 275 280 273 274 276 276 275 278 281 279 279 278 280 273 273 275 273 274 274 274 274 274 273 273 272 273 274 274 274 276 278 281 286 284 281 280 281 281 283
278 278 279 277 268 277 282 282 283 281 281 279 281 280 276 273 274 278 272 269 272 271 271 272 273 274 273 273 272 272 273 273 273 274 276 278 281 284 288 285 284 284 285 287
275 273 281 272 282 277 277 280 278 278 280 282 273 274 271 281 284 280 278 274 274 270 272 273 274 273 273 272 271 272 273 272 272 274 276 277 281 283 284 288 290 289 289 290
271 268 280 275 284 280 277 284 284 281 281 273 270 273 275 281 279 281 278 278 270 271 273 275 273 273 272 271 270 272 272 271 271 274 275 277 279 282 283 285 286 290 290 291
276 273 274 274 275 280 280 286 287 282 279 276 271 271 274 274 276 275 276 276 275 272 275 275 273 272 272 270 269 270 271 270 270 273 274 275 277 280 283 284 285 285 287 288
278 279 278 281 280 278 278 282 279 275 281 278 277 277 278 280 280 280 280 280 278 275 275 275 273 272 271 271 269 269 269 269 270 273 273 274 276 278 282 284 285 285 286 287
281 279 282 281 283 282 280 279 280 279 283 283 281 279 279 279 278 278 278 279 278 276 275 275 273 272 271 270 270 269 269 271 271 272 272 273 275 276 277 280 283 286 286 286
282 283 283 283 284 283 283 284 283 282 279 280 278 277 277 277 276 276 277 278 278 277 276 275 272 271 270 270 270 271 270 271 270 272 272 272 273 274 275 277 279 282 285 287
283 284 283 284 284 284 284 283 281 280 279 278 277 276 276 275 276 275 274 275 275 276 276 275 274 272 271 269 270 271 271 271 269 270 270 271 271 272 273 274 277 279 279 282
Wind_Speed
3 3 10 12 5 7 12 17 17 20 20 11 18 20 25 24 20 20 16 8 8 7 6 18 19 18 16 16 16 16 18 20 19 19 18 20 20 25 27 25 24 24 27 29
4 12 11 6 6 12 11 16 15 17 13 14 18 25 24 18 15 18 14 3 7 7 7 7 14 20 18 15 15 16 17 20 22 22 23 23 24 27 29 31 29 31 30 29
4 16 12 5 13 17 12 13 11 16 21 14 8 12 13 13 10 15 15 12 7 6 9 10 9 12 15 18 20 22 25 26 24 23 23 24 24 24 25 27 27 28 31 37
8 4 7 12 13 15 15 9 11 16 13 10 4 5 7 10 8 12 11 11 10 9 7 5 8 15 20 23 24 25 25 24 23 21 22 21 20 21 25 23 23 24 25 30
7 11 14 10 10 14 7 13 11 18 12 4 7 3 7 12 7 7 6 7 7 6 5 8 8 14 20 20 25 24 24 23 23 23 23 24 25 25 25 25 26 26 28 32
4 8 3 3 6 7 10 9 15 5 3 3 5 4 5 2 3 2 2 8 8 8 7 7 12 16 19 23 23 23 22 24 24 23 23 23 23 24 24 26 27 27 25 27
6 4 5 5 13 6 8 7 5 5 4 5 7 6 7 2 4 2 4 9 8 7 7 8 9 11 18 22 24 24 24 25 26 26 27 27 28 28 30 30 29 27 27 28
3 8 5 13 11 5 13 5 1 5 2 8 8 4 5 5 3 4 7 8 9 8 9 9 11 14 20 23 25 25 25 27 27 27 29 30 29 29 30 30 32 31 30 30
5 6 16 16 8 2 4 3 5 4 1 3 3 6 12 5 6 9 13 14 11 8 11 11 11 15 19 22 25 26 28 29 29 29 30 30 31 31 31 30 31 32 33 33
5 11 7 4 7 4 3 6 5 3 4 5 5 5 5 10 9 17 16 15 13 9 11 12 13 18 22 26 28 29 31 31 32 32 31 31 31 32 32 32 35 34 34 33
4 3 9 6 1 6 6 4 3 2 1 2 4 5 7 6 6 12 14 15 10 10 11 12 13 21 24 27 28 29 31 32 33 32 31 32 32 32 32 34 35 36 34 34
4 4 4 11 10 5 4 5 2 2 6 2 2 7 3 5 8 7 13 14 12 9 9 11 12 18 21 24 28 29 31 31 32 32 34 34 33 32 34 35 35 34 35 34
3 3 5 10 6 6 3 4 3 1 1 6 3 6 4 16 15 14 12 12 12 12 13 12 13 14 18 24 29 32 34 36 35 33 33 34 34 34 34 35 34 34 35 33
3 1 7 7 11 2 5 9 1 5 1 3 7 11 18 15 15 19 17 14 12 11 10 12 14 16 21 27 29 31 34 35 35 34 33 33 34 35 35 35 36 37 36 36
5 5 4 9 17 4 8 17 11 7 8 4 9 7 16 13 15 15 13 9 11 13 14 13 15 16 17 26 33 35 36 37 35 33 32 34 37 37 35 35 36 35 35 35
1 4 3 8 3 4 5 9 9 11 6 7 10 12 9 8 10 11 10 9 10 13 13 14 16 17 18 26 31 37 37 37 35 34 33 35 34 33 34 35 34 34 33 35
3 2 2 6 3 4 3 6 5 4 3 4 3 7 6 13 14 14 9 10 10 12 12 13 14 16 21 28 32 33 37 37 35 33 34 35 34 28 25 31 31 31 31 31
4 4 3 5 5 3 6 2 5 6 7 6 5 9 8 10 9 15 5 6 10 10 10 13 12 20 29 33 35 37 37 36 34 34 36 38 37 26 13 23 26 27 29 30
7 3 2 1 3 6 5 4 2 3 6 6 5 8 7 6 5 7 4 5 8 9 9 11 18 24 27 30 35 33 34 35 34 35 37 39 37 30 4 17 22 25 26 24
4 2 2 1 3 5 7 5 4 4 4 5 5 5 4 9 8 5 8 6 10 9 14 14 20 23 24 32 34 30 30 34 32 36 35 36 37 32 24 14 18 20 21 20
2 3 8 6 7 7 7 5 6 4 6 4 5 5 4 3 5 13 14 12 6 10 18 17 21 18 24 28 29 28 29 31 38 38 37 38 39 34 31 25 23 19 17 17
6 4 4 1 0 7 5 4 3 6 4 3 4 4 5 7 9 7 9 10 11 7 17 17 18 16 26 29 27 26 29 35 36 38 37 38 38 36 34 32 30 28 22 21
2 7 4 7 6 6 6 8 6 5 5 4 3 3 5 9 10 11 9 10 10 8 14 19 16 17 20 31 26 24 32 36 34 33 36 36 38 39 39 35 32 27 26 20
5 5 5 3 7 12 9 5 6 6 4 4 3 6 6 10 10 12 9 9 9 10 10 16 14 15 14 27 29 30 35 38 30 30 31 34 34 36 38 39 36 35 27 19
5 4 5 8 15 10 7 4 3 1 2 4 4 5 6 7 9 8 10 10 10 13 12 13 15 11 15 22 27 32 35 37 30 29 31 31 32 33 31 32 38 37 43 41
8 12 5 8 12 8 9 4 1 2 3 4 7 6 5 7 9 10 11 11 13 15 16 11 13 14 18 19 23 29 32 33 31 26 28 29 27 29 30 27 26 37 43 49
Wind_Direction
306 304 273 281 255 270 294 297 301 300 308 309 299 302 295 293 296 286 277 266 283 76 43 53 50 37 21 8 356 347 332 323 319 318 315 307 300 296 291 286 284 280 276 277
355 265 275 294 296 306 302 292 293 301 305 309 305 294 291 297 287 284 281 122 63 44 25 17 20 10 9 359 349 336 328 319 314 308 302 294 289 287 282 282 277 273 271 273
186 274 307 288 320 305 302 293 296 308 312 299 305 296 308 318 357 34 55 77 58 40 14 354 354 3 355 342 334 326 318 312 306 301 297 290 283 279 274 270 270 267 267 264
267 280 327 318 308 306 302 296 308 311 322 304 97 282 307 335 351 28 33 42 25 7 350 313 340 351 342 329 321 316 312 306 300 293 286 279 267 264 265 269 269 268 261 259
261 312 307 319 300 319 289 314 302 309 291 30 339 61 281 328 59 24 349 355 354 346 344 345 335 323 314 312 312 307 303 297 292 287 278 272 266 263 267 265 264 260 257 255
297 273 197 223 355 318 329 322 323 22 89 23 246 104 286 337 281 177 339 340 329 318 322 316 301 301 303 306 303 301 297 292 288 283 277 272 269 267 262 260 260 258 257 255
322 339 335 44 341 331 359 355 304 344 357 226 290 326 247 209 243 189 286 315 310 310 309 299 302 306 307 303 303 301 298 291 288 282 277 270 265 262 258 257 256 256 253 250
9 328 10 335 309 266 314 184 227 289 263 289 306 245 267 210 201 354 294 288 306 306 298 296 302 299 301 303 301 299 294 291 289 284 276 272 267 262 258 255 252 251 248 247
327 259 309 293 336 66 343 18 234 259 67 42 270 289 304 181 326 346 333 332 321 297 301 301 301 303 305 305 302 302 300 295 288 283 279 272 268 262 257 255 252 248 246 244
260 297 284 289 359 306 2 278 336 351 314 303 292 284 235 316 313 330 332 331 318 305 316 320 323 316 314 312 308 303 297 293 290 286 281 275 270 264 259 254 249 246 246 242
152 171 283 359 231 257 333 328 296 177 121 318 321 267 226 253 261 310 312 323 316 311 318 316 309 313 309 305 302 300 295 292 290 287 281 275 269 264 258 252 248 245 245 240
230 249 272 259 288 205 199 218 219 29 308 260 182 275 213 222 288 285 306 317 318 311 301 299 305 310 309 307 306 299 300 301 296 290 282 276 272 264 255 250 246 244 241 238
242 251 311 333 347 358 54 299 77 106 108 227 168 268 289 323 320 322 319 318 323 317 314 318 323 320 314 313 308 305 305 305 302 296 287 278 270 261 252 246 242 238 236 236
91 82 188 243 247 154 317 283 233 156 194 237 236 284 300 310 317 327 325 321 319 302 297 318 328 321 318 316 309 309 308 306 302 298 289 281 275 263 252 243 234 233 229 229
121 246 187 249 257 188 258 268 271 188 220 230 278 281 291 292 309 311 306 300 319 320 326 332 322 320 318 318 319 318 315 311 310 303 297 287 279 266 250 237 230 225 222 223
270 257 133 287 346 168 253 263 249 245 254 244 264 276 252 274 295 316 314 314 315 314 320 323 321 320 321 322 320 320 318 317 317 313 305 300 291 271 243 225 217 215 212 217
196 214 34 271 314 337 339 236 224 262 226 194 252 248 312 313 320 320 310 303 299 299 307 313 318 319 320 321 321 318 321 325 326 324 324 324 322 308 219 201 200 202 205 210
177 157 155 265 350 2 244 243 186 213 255 212 269 277 273 274 277 295 252 259 298 295 309 320 322 320 323 324 330 330 331 334 335 334 339 342 344 349 146 171 183 191 200 204
180 148 263 220 199 287 318 275 207 161 280 197 255 294 282 278 299 299 237 235 268 273 287 287 305 313 323 332 334 336 337 340 344 344 345 348 356 358 79 172 181 188 193 196
93 139 170 74 244 234 228 259 163 112 290 219 187 265 282 323 336 286 309 288 299 283 292 308 328 330 338 340 339 342 347 344 348 344 347 355 5 11 16 47 182 176 182 194
336 356 215 240 258 273 233 244 126 85 248 249 194 244 266 267 233 292 308 308 268 283 298 331 344 341 335 342 346 349 352 351 338 348 356 5 8 16 21 37 55 96 116 120
178 164 218 109 122 276 199 132 176 222 285 235 252 237 258 259 284 283 293 299 304 303 313 337 342 346 352 355 355 353 356 345 347 355 3 6 11 15 22 36 43 51 64 75
294 193 198 186 218 226 214 234 244 192 222 254 242 251 267 297 302 311 312 314 307 303 306 327 348 343 3 5 3 355 350 352 353 1 4 6 13 19 24 31 40 41 45 59
251 178 223 45 250 254 265 250 232 187 234 284 288 304 299 302 310 308 314 317 318 310 307 320 347 343 4 5 9 9 4 10 1 7 10 10 16 15 22 29 33 43 45 48
200 172 209 252 276 278 279 270 144 318 245 292 292 273 296 309 306 301 317 321 316 311 307 313 330 346 356 11 12 16 17 20 11 12 12 16 16 15 15 22 32 35 38 45
216 237 208 244 256 239 265 162 143 292 317 322 317 312 308 307 312 321 309 313 314 318 305 298 319 338 352 18 16 14 19 25 26 20 13 12 17 16 16 19 26 36 39 40